Location: ???? ?????
(37.9132°N, 22.9869°E)
Time: 18:53:53
(UTC+00:00)

USA 215 - Pass Details

Date: 04 August 2024
Orbit: 1099 x 1108 km, 123.0° (Epoch: 16 September)

Event Time Altitude Azimuth Distance (km) Brightness Sun altitude
Exits shadow 21:28:33 48° 59° (ENE) 1,412 3.8 -33.0°
Maximum altitude 21:29:22 50° 36° (NE) 1,370 3.8 -33.1°
Drops below altitude 10° 21:35:37 10° 324° (NW) 2,963 6.3 -33.5°
Sets 21:38:10 0° 319° (NW) 3,924 7.0 -33.6°
